Location: Sainte-Florence
(44.8098°N, 0.0954°W)
Time: 15:30:47
(UTC+00:00)

Daily predictions for brighter satellites

Satellite Brightness Start Highest point End
(mag) Time Altitude Azimuth Time Altitude Azimuth Time Altitude Azimuth
CSL-04 DEB 4.3 18:15:38 10° NNE 18:19:37 82° ESE 18:23:38 10° SSW
USA 307 4.5 18:16:49 10° WNW 18:20:34 29° NNW 18:24:19 10° NE
ATLAS CENTAUR R/B 2.3 18:20:00 10° SSE 18:22:53 23° ESE 18:25:48 10° ENE
FALCON 9 DEB 4.3 18:19:55 10° NW 18:23:00 30° NNE 18:26:04 10° E
USA 306 4.5 18:20:19 10° WNW 18:24:00 27° NNW 18:27:43 10° NE
Cosmos 44 Rocket 3.5 18:22:10 10° NNW 18:27:24 64° NE 18:32:32 10° SE
Okean-O 2.7 18:23:35 10° SSE 18:27:54 55° ENE 18:32:15 10° N
ERS-2 2.7 18:25:27 10° NNE 18:28:51 35° E 18:32:13 10° SSE
CSL-04 Rocket 4.2 18:24:14 10° SE 18:29:23 40° ENE 18:34:30 10° N
Cosmos 2084 Rocket 3.8 18:25:31 10° NNW 18:29:43 48° NE 18:34:04 10° ESE
Cosmos 1844 Rocket 3.4 18:24:42 10° N 18:29:46 34° NE 18:34:48 10° ESE
Cosmos 1666 4.3 18:31:13 10° ESE 18:33:17 14° E 18:35:21 10° NE
Cosmos 1271 Rocket 3.2 18:30:48 10° NNW 18:34:31 63° W 18:38:13 10° S
HJ-1C 3.8 18:32:42 10° SE 18:35:50 40° ENE 18:38:58 10° N
Cosmos 1503 Rocket 4.3 18:31:33 10° N 18:36:33 44° ENE 18:41:27 10° SE
H-2A R/B 4.2 18:34:06 10° N 18:37:37 29° WNW 18:41:11 10° SW
SKYMED 2 4.5 18:34:37 10° N 18:38:53 54° WNW 18:43:05 10° SSW
PSLV R/B 3.9 18:35:56 10° NNE 18:40:00 64° E 18:44:01 10° S
Cosmos 1470 Rocket 3.7 18:36:42 10° S 18:41:03 53° E 18:45:24 10° NNE
Cosmos 1844 4.4 18:36:17 10° NNW 18:41:35 36° NE 18:46:49 10° ESE
Cosmos 2360 Rocket 2.5 18:38:00 10° S 18:43:20 44° ESE 18:48:41 10° NE
CZ-4B R/B 2.8 18:41:03 10° N 18:43:56 38° WNW 18:46:49 10° SW
Cosmos 1602 3.7 18:40:48 10° S 18:44:41 88° W 18:48:37 10° N
Ariane Rocket 4.4 18:42:04 12° E 18:45:02 20° ENE 18:48:38 10° NNE
Cosmos 2278 Rocket 4.1 18:44:01 10° NNE 18:46:19 12° NE 18:48:36 10° ENE
Meteor 1-19 Rocket 4.3 18:43:41 10° N 18:49:40 80° E 18:55:26 10° SSE
Cosmos 1500 3.3 18:48:10 10° S 18:51:46 49° E 18:55:23 10° NNE
Cosmos 2333 Rocket 3.2 18:49:16 10° SSE 18:53:40 24° ESE 18:58:06 10° NE
Meteor 2-4 Rocket 3.9 18:48:29 10° N 18:54:12 53° ENE 18:59:59 10° SSE
Cosmos 1703 Rocket 4.1 18:50:21 10° N 18:54:25 35° ENE 18:58:25 10° SE
DMSP B5D1-3 4.5 18:49:58 10° NNE 18:55:09 75° ESE 19:00:18 10° S
SL-08 RB Rocket 3.7 18:52:03 10° SSE 18:56:28 57° ENE 19:00:58 10° N
Meteor 2-12 Rocket 4.4 18:51:08 10° S 18:57:09 72° E 19:03:14 10° NNE
Cosmos 1689 Rocket 1.9 18:54:28 10° NNE 18:57:21 87° WNW 19:00:14 10° SSW
ERBS 4.4 18:56:21 10° W 18:59:04 23° NNW 19:01:46 10° NNE
Cosmos 1980 Rocket 4.5 18:55:22 10° W 18:59:49 23° NW 19:04:17 10° N
Cosmos 1933 Rocket 3.5 18:57:40 10° S 19:01:56 59° E 19:06:16 10° NNE
BREEZE-M DEB (TANK) 4.1 19:01:56 10° S 19:03:36 19° SE 19:03:36 19° SE
Aureole 2 Rocket 1.5 19:02:32 10° NNW 19:05:04 83° WSW 19:06:52 17° SSE
Cosmos 1862 Rocket 4.2 19:02:06 10° NNW 19:06:33 60° W 19:10:56 10° S
Resurs 01 Rocket 3.6 19:12:41 13° NE 19:12:41 13° NE 19:13:54 10° NNE
Cosmos 2242 Rocket 3.6 19:08:04 10° N 19:12:34 62° E 19:16:58 10° SSE
Cosmos 2322 Rocket 2.7 19:07:42 10° SW 19:13:16 63° WNW 19:18:52 10° NNE
Lacrosse 4 Rocket 2.7 19:11:50 10° SSE 19:14:29 23° SE 19:14:29 23° SE
Abrixas rocket 2.6 19:13:29 10° WNW 19:15:48 32° N 19:16:07 31° NNE
Helios 1A Rocket 3.2 19:14:51 10° S 19:18:53 66° WSW 19:22:55 10° NNW
SME Rocket 4.4 19:11:39 10° NNE 19:19:05 43° E 19:24:05 10° SSE
YAOGAN 1 4.0 19:15:39 10° SSW 19:19:42 39° W 19:23:48 10° NNW
Nadezhda 3 Rocket 4.5 19:15:10 10° NNW 19:21:28 65° W 19:27:45 10° S
COSMOS 2428 3.4 19:18:45 10° SSE 19:23:37 30° ESE 19:24:51 28° E
SJ-6B 3.2 19:22:30 33° ESE 19:23:45 44° ENE 19:27:37 10° N
GP-B 3.1 19:23:16 10° S 19:27:42 84° W 19:32:10 10° N
ASTEX 1 3.7 19:23:33 10° NNE 19:28:10 39° E 19:30:11 27° SE
Meteor 1-14 Rocket 4.5 19:22:38 10° SSW 19:28:11 71° WNW 19:33:43 10° N
Cosmos 2219 Rocket 2.5 19:25:20 10° S 19:30:29 40° ESE 19:35:42 10° NE
Meteor 1-11 Rocket 3.9 19:25:32 10° SSE 19:30:59 47° E 19:36:20 10° NNE
MetOp-A 4.0 19:27:23 10° SSE 19:32:43 73° ENE 19:38:04 10° N
OBJECT-B 2.2 19:36:24 27° NNE 19:36:24 27° NNE 19:38:07 10° N
ARGOS 4.2 19:31:51 10° S 19:37:01 46° W 19:42:16 10° NNW
SL-16 R/B 3.8 19:33:00 10° WSW 19:38:09 35° NW 19:43:19 10° N
Resurs 1-3 4.3 19:38:47 35° NE 19:38:47 35° NE 19:42:19 10° N
SJ 16-02 2.9 19:37:14 10° N 19:39:34 21° NE 19:39:34 21° NE
SeaSat 1 3.0 19:36:50 10° NNE 19:41:43 60° WNW 19:46:33 10° SW
Okean 1-7 3.1 19:37:20 10° NNW 19:41:43 78° W 19:45:45 12° S
CZ-4 R/B 4.3 19:40:45 10° SW 19:43:18 17° W 19:45:53 10° NW
Cosmos 1066 Rocket 4.4 19:38:20 10° N 19:43:56 52° ENE 19:45:41 39° SE
Meteor 1-13 Rocket 4.2 19:38:25 10° N 19:44:23 73° ENE 19:48:31 20° SSE
USA 234 3.1 19:39:53 19° NE 19:44:51 77° SE 19:51:24 10° SW
H-2A R/B 4.3 19:43:14 10° SSW 19:47:45 26° W 19:52:19 10° NW
CZ-2C R/B 3.4 19:44:05 10° N 19:49:25 54° WNW 19:54:37 10° SW
IRS-1A Rocket 4.2 19:46:43 30° SSE 19:49:35 70° ENE 19:55:08 10° N
USA 305 4.5 19:46:40 10° NW 19:50:10 24° N 19:50:56 23° NNE
Cosmos 2322 3.6 19:44:42 10° SSW 19:50:24 75° ESE 19:56:08 10° NNE
BREEZE-M DEB (TANK) 3.0 19:47:58 10° WNW 19:50:36 45° NNE 19:51:09 42° NE
USA 186 4.3 19:56:42 12° NNW 19:56:42 12° NNW 19:56:58 10° NNW
SL-4 R/B 2.6 19:51:32 10° NW 19:54:12 39° NNW 19:54:12 39° NNW
DMSP B5D2-2 4.3 19:50:04 10° N 19:55:17 71° WNW 20:00:27 10° SSW
Cosmos 1869 Rocket 3.4 19:51:53 10° S 19:56:13 87° W 20:00:39 10° N
SL-8 Rocket 4.0 19:52:23 10° S 19:58:38 80° W 20:04:53 10° N
Gbstr 26 Del rocket 4.3 19:55:14 10° WNW 19:59:43 39° N 20:00:59 34° NE
FALCON 9 DEB 4.1 19:56:45 10° WNW 19:59:26 46° W 19:59:26 46° W
USA 307 4.5 19:58:01 10° NW 20:01:34 24° N 20:01:49 24° NNE
ATLAS CENTAUR R/B 2.8 19:58:19 10° WSW 20:01:36 31° NW 20:03:10 22° N
USA 306 4.5 20:01:25 10° NW 20:04:59 25° N 20:05:03 25° N
Cosmos 1666 4.0 20:04:59 10° SSW 20:08:28 38° WNW 20:11:59 10° N
Cosmos 2366 rocket 4.1 20:07:22 10° SSW 20:13:41 76° W 20:20:04 10° N
Cosmos 1844 Rocket 3.9 20:08:33 10° NW 20:13:42 39° WSW 20:17:54 15° S
SL-08 R/B 4.4 20:11:58 36° SSE 20:14:43 70° E 20:21:09 10° NNE
Cosmos 1777 Rocket 4.2 20:11:57 10° NNW 20:17:09 66° WSW 20:18:16 51° SSW
SPOT 3 Rocket 4.0 20:18:37 50° NNE 20:18:37 50° NNE 20:22:43 10° N
Okean 3 4.0 20:15:42 10° NNW 20:19:31 57° WNW 20:19:31 57° WNW
Ariane Rocket 3.4 20:22:15 46° SSW 20:23:32 61° WSW 20:28:36 10° NNW
Cosmos 2360 Rocket 3.9 20:22:28 10° WSW 20:27:28 32° NW 20:32:31 10° N
Cosmos 2278 Rocket 2.8 20:26:07 10° NNW 20:30:27 46° NNE 20:30:27 46° NNE
Cosmos 1727 Rocket 4.1 20:30:19 10° NNW 20:36:28 73° W 20:37:45 56° SSW
Cosmos 2333 Rocket 2.8 20:31:56 10° SW 20:37:30 56° WNW 20:43:09 10° NNE
Meteor 2-20 4.4 20:31:41 10° N 20:37:48 79° W 20:38:13 75° SW
Resurs 01 Rocket 3.6 20:50:14 24° NNW 20:50:14 24° NNW 20:52:03 10° NNW
Cosmos 1943 Rocket 4.3 20:46:45 10° N 20:48:24 15° NNE 20:48:24 15° NNE
Lacrosse 4 Rocket 3.9 20:49:44 10° WSW 20:50:57 18° WSW 20:50:57 18° WSW
COSMOS 2428 3.7 21:02:17 10° SW 21:14:01 - NNE 21:07:13 43° WNW
Cosmos 2219 Rocket 3.6 21:09:28 10° WSW 21:14:30 34° NW 21:19:36 10° N
SJ 16-02 4.0 21:15:26 10° NW 21:16:35 17° NW 21:16:35 17° NW
USA 234 4.1 21:27:15 44° NNW 21:27:37 45° NNW 21:33:44 10° W
